Location: Auckland
(36.8670°S, 174.7670°E)
Time: 11:27:12
(UTC+12:00)

Courier 1B Rocket - Pass Details

Date: 27 July 2019
Orbit: 920 x 1202 km, 28.3° (Epoch: 20 August)

Event Time Altitude Azimuth Distance (km) Brightness Sun altitude
Rises 23:56:28 0° 342° (NNW) 3,992 - -71.3°
Reaches altitude 10° 00:01:37 10° 12° (NNE) 3,088 - -71.7°
Maximum altitude 00:04:08 12° 31° (NNE) 2,972 - -71.8°
Drops below altitude 10° 00:06:41 10° 51° (NE) 3,126 - -72.0°
Sets 00:11:57 0° 79° (E) 4,106 - -72.2°
